全球星 M001星 (GLOBALSTAR M001)

导读 | 星芒AI

GLOBALSTAR M001 是 Globalstar 公司部署的一颗低轨通信卫星,主要用于提供移动卫星通信服务。该卫星属于 Globalstar 的第二代卫星星座(称为“增强型星座”),旨在为全球用户提供语音和数据传输服务,特别是在偏远地区。M001 卫星采用先进通信技术,提高了信号稳定性和传输效率。它运行在约 1414 公里的近地轨道,设计寿命为 15 年,是 Globalstar 扩展其通信网络、提升服务质量的重要组成部分。

基本信息
目录编号:
25162
目录名称:
GLOBALSTAR M001
国际标识:
1998-008A
轨道中心:
EARTH
卫星名称:
全球星 M001星
卫星全名:
全球星 M001星 (GLOBALSTAR M001)
卫星状态:
在轨 (已飞行10167 天)
发射日期:
1998-02-14 UTC
国别 :
(GLOB)
星等 :
--
轨道信息
数据来源 国际轨道数据 AOE轨道数据
星历时间 2025-12-15T02:16:05+0800
1天前
查看轨道信息
2025-12-14T08:00:00+0800
2天前
查看轨道信息
半长轴 7892.28km 7892.289km
偏心率 0.0000259 0.000004
轨道倾角 52.000° 51.997°
近地点辐角 302.505° 25.346°
升交点赤经 167.643° 169.857°
平近点角 70.637° 193.194°
近地点 1513.94km 1514.122km
远地点 1514.35km 1514.186km
周期 116.296分钟 116.296分钟
每日圈数 12.382236 12.382214
详细信息
固有亮度:
5
最大亮度:
7.9
平衡模式:
三轴稳定
覆盖范围:
全球
运营商:
全球星公司
运营商所在国:
美国
使用方式:
暂无
卫星简介
全球星星座由48颗卫星加8颗备份星组成。这些卫星分布在8个倾角为52度的圆形轨道平面上,每个轨道平面6颗卫星,另有1 颗备用星。轨道高度约为1414km,传输时延和处理时延小于300ms,整个系统的覆盖区为南北纬70度以内的地区。该卫星仍在工作。
2D轨道图
3D轨道图
轨道高度分析图
轨道倾角分析图
轨道综合分析图
查看轨道综合分析图